STARLINK-11497, 62470

Orbit data source: Space-Track

STARLINK-11497, 62470 is a payload satellite owned by SpaceX/Seattle (US) in LEO that was launched on Tue, 31 Dec 2024 UTC via an FALCON 9 launch vehicle from the Air Force Eastern Test Range (AFETR). Payload-class satellites include a variety of spacecraft equipped with specific instruments for various scientific and technological missions. These include communications satellites like Starlink; space stations such as the ISS; scientific satellites like the Hubble; Earth observation satellites from companies like Planet Labs, Umbra, and HawkEye 360; GPS; miniature CubeSats for education and research; and military/defense satellites.

Loading next visibility...
Identifier
62470, 2024-254J
Orbit
LEO
Country
Flag of USUS
Related business
Manufacturer
SpaceX/Seattle
Mission
Operational Commercial Communications
Bus & Motor
STARLINK V2MD, Unknown motor
Mass
960 kg wet, ~910 kg dry
Launch date (UTC)
2024-12-31 (10 months ago)
Launch vehicle
FALCON 9
Launch site
Air Force Eastern Test Range (AFETR)
Object type
Payload
Rocket body
Debris
Shape & HBR
Box + 2 Pan, 18.1 m
Radar Cross Section
36.964 m², Large (>1 m²)

Expand to show TLE details & history
Last TLE update: 14 hours ago

TLE from 14 hours ago
0 STARLINK-11497
1 62470U 24254J   25295.41815558  .00274911  00000-0  20708-2 0  9999
2 62470  42.9992 336.5303 0000978 249.5981 110.4781 15.70897569 47652
Epoch: 2025-10-22T10:02Z
TLE epoch observation values (Epoch: 2025-10-22T10:02:08.642Z)
Latitude
-0.00005°
Longitude
154.90219°
Altitude
356.332 km
Speed
7.697 km/s
True Right ascension
22h 26m 07s
True Declination
0° 00' 00"
Sunlit
Object was in full shadow at epoch
Visualization orbit readout
Latitude
Unknown
Longitude
Unknown
Altitude
Unknown
Speed
Unknown
Apparent Right ascension
Unknown
Apparent Declination
Unknown
Sunlit
N/A
Visualization observer readout
Local Sidereal Time
19:16:03
Azimuth
Unknown
Elevation
Unknown
Doppler factor
Unknown
Orbital elements
Apogee altitude
358.971 km
Perigee altitude
357.653 km
Semi-major axis
6,736.449 km
Eccentricity
0.0001
Inclination
42.9992°
RAAN
336.5303°
Arg. of periapsis
249.5981°
True anomaly
110.4886°
Mean anomaly
110.4781°
Eccentric anomaly
110.48335°
Mean motion
3.92551 °/min
Orbital period
91.71 mins
BSTAR
0.0020708
Loading maneuver chart data...
Computing Atmospheric mass density...
Loading historical data...
Loading historical data...
Loading historical data...
Loading historical data...
Loading historical data...
Loading historical data...
Loading historical data...

Documentation

Showing up to 5 results
|